Weather History for Henderson, NV

Change the Weather History Date:

Wednesday, November 7, 2012

  Actual Average (KLAS) Record (KLAS)
Temperature  
Mean Temperature 64 °F 60 °F  
Max Temperature 79 °F 71 °F 84 °F (2007)
Min Temperature 50 °F 50 °F 23 °F (1938)
Degree Days  
Heating Degree Days 0 6  
Month to date heating degree days 33  
Since 1 July heating degree days 72  
Cooling Degree Days 0 1  
Month to date cooling degree days 8  
Year to date cooling degree days 3564  
Growing Degree Days 14 (Base 50)    
Moisture  
Dew Point 32 °F    
Average Humidity 30    
Maximum Humidity 50    
Minimum Humidity 20    
Precipitation  
Precipitation 0.00 in 0.01 in 0.61 in (2004)
Month to date precipitation 0.08  
Year to date precipitation 3.41  
Snow  
Snow 0.00 in 0.00 in 0.00 in ()
Month to date snowfall 0.0  
Since 1 July snowfall 0.0  
Since 1 September snowfall 0.0  
Snow Depth -    
Sea Level Pressure  
Sea Level Pressure 29.91 in    
Wind  
Wind Speed 6 mph (South)    
Max Wind Speed 12 mph    
Max Gust Speed -    
Visibility 10 miles    
Events      
T = Trace of Precipitation, MM = Missing Value Source: NWS Daily Summary

Daily Weather History Graph

Daily Weather History Graph

Search for Another Location

Airport:

Trip Planner

Search our weather history database for the weather conditions in past years. The results will help you decide how hot, cold, wet, or windy it might be!

Date:

Astronomy

Nov. 07, 2012 Rise Set
Actual Time 6:09 AM PST 4:38 PM PST
Civil Twilight 5:42 AM PST 5:05 PM PST
Nautical Twilight 5:12 AM PST 5:35 PM PST
Astronomical Twilight 4:41 AM PST 6:06 PM PST
Moon No Moon Rise 12:38 PM PST (11/7)
Length of Visible Light 11h 22m
Length of Day
10h 29m
Last Quarter, 42% of the Moon is Illuminated
Nov 7
Last Quarter
Nov 13
New
Nov 20
First Quarter
Nov 28
Full
Dec 6
Last Quarter

Hourly Weather History & Observations

Time (PST) Temp. Dew Point Humidity Pressure Visibility Wind Dir Wind Speed Gust Speed Precip Events Conditions
12:56 AM 61.0 °F 30.0 °F 31% 29.97 in 10.0 mi SSW 11.5 mph - N/A   Clear
1:56 AM 57.9 °F 30.0 °F 35% 29.96 in 10.0 mi SSE 8.1 mph - N/A   Clear
2:56 AM 55.9 °F 30.0 °F 37% 29.96 in 10.0 mi South 9.2 mph - N/A   Clear
3:56 AM 54.9 °F 30.0 °F 39% 29.96 in 10.0 mi South 8.1 mph - N/A   Clear
4:56 AM 52.9 °F 32.0 °F 45% 29.98 in 10.0 mi South 9.2 mph - N/A   Clear
5:56 AM 50.9 °F 32.9 °F 50% 29.99 in 10.0 mi Calm Calm - N/A   Clear
6:56 AM 54.0 °F 32.0 °F 43% 30.00 in 10.0 mi SSE 8.1 mph - N/A   Clear
7:56 AM 63.0 °F 34.0 °F 34% 30.00 in 10.0 mi Calm Calm - N/A   Clear
8:56 AM 68.0 °F 31.1 °F 25% 29.99 in 10.0 mi Calm Calm - N/A   Clear
9:56 AM 70.9 °F 32.0 °F 24% 29.97 in 10.0 mi Calm Calm - N/A   Clear
10:56 AM 73.9 °F 32.0 °F 21% 29.94 in 10.0 mi Calm Calm - N/A   Clear
11:56 AM 77.0 °F 34.9 °F 22% 29.90 in 10.0 mi NNE 5.8 mph - N/A   Clear
12:56 PM 77.9 °F 34.9 °F 21% 29.87 in 10.0 mi Calm Calm - N/A   Clear
1:56 PM 79.0 °F 36.0 °F 21% 29.84 in 10.0 mi NNE 3.5 mph - N/A   Clear
2:56 PM 79.0 °F 34.9 °F 20% 29.83 in 10.0 mi Calm Calm - N/A   Clear
3:56 PM 77.0 °F 35.6 °F 22% 29.93 in 10.0 mi Calm Calm - N/A   Clear
4:56 PM 72.9 °F 36.9 °F 27% 29.83 in 10.0 mi Calm Calm - N/A   Clear
5:56 PM 66.9 °F 37.9 °F 34% 29.83 in 10.0 mi Calm Calm - N/A   Clear
6:56 PM 64.4 °F 35.6 °F 34% 29.93 in 10.0 mi SSW 8.1 mph - N/A   Clear
7:56 PM 64.9 °F 30.0 °F 27% 29.82 in 10.0 mi South 10.4 mph - N/A   Clear
8:56 PM 64.9 °F 27.1 °F 24% 29.80 in 10.0 mi SSW 11.5 mph - N/A   Clear
9:56 PM 63.0 °F 27.1 °F 26% 29.80 in 10.0 mi SSW 10.4 mph - N/A   Clear
11:56 PM 65.8 °F 28.0 °F 24% 29.76 in 10.0 mi SSE 11.5 mph - N/A   Clear